• In Belarus
  • List of Countries
  • For 7 days
  • Water Temperature
  • Weather Map
  • Weather Widgets
  • user-avatar
    Login

    Hourly Weather Baraki Barak

    Today, 20 November, Wednesday

    Time Temperature Precipitation Wind Pressure Humidity
    00:00 +6°C° 0 mm 0 mps 596 mmHg 34%
    01:00 +5°C° 0 mm 0 mps 596 mmHg 35%
    02:00 +5°C° 0 mm 0 mps 596 mmHg 36%
    03:00 +5°C° 0 mm 0 mps 595 mmHg 37%
    04:00 +4°C° 0 mm 0 mps 595 mmHg 37%
    05:00 +4°C° 0 mm 0 mps 595 mmHg 36%
    06:00 +5°C° 0 mm 0 mps 596 mmHg 36%
    07:00 +5°C° 0 mm 0 mps 596 mmHg 36%
    08:00 +6°C° 0 mm 0 mps 597 mmHg 36%
    09:00 +7°C° 0 mm 0 mps 597 mmHg 32%
    10:00 +9°C° 0 mm 1 mps 597 mmHg 28%
    11:00 +9°C° 0 mm 0 mps 598 mmHg 24%
    12:00 +11°C° 0 mm 1 mps 597 mmHg 23%
    13:00 +11°C° 0 mm 1 mps 597 mmHg 23%
    14:00 +12°C° 0 mm 1 mps 597 mmHg 23%
    15:00 +12°C° 0 mm 1 mps 597 mmHg 26%
    16:00 +11°C° 0 mm 1 mps 597 mmHg 29%
    17:00 +11°C° 0 mm 1 mps 597 mmHg 35%
    18:00 +9°C° 0.3 mm 1 mps 597 mmHg 52%
    19:00 +7°C° 0.3 mm 1 mps 597 mmHg 69%
    20:00 +6°C° 0.3 mm 1 mps 597 mmHg 85%
    21:00 +6°C° 0.6 mm 1 mps 597 mmHg 88%
    22:00 +5°C° 0.6 mm 1 mps 597 mmHg 91%
    23:00 +5°C° 0.6 mm 1 mps 597 mmHg 93%

    Tomorrow, 21 November, Thursday

    Time Temperature Precipitation Wind Pressure Humidity
    00:00 +5°C° 0.4 mm 1 mps 597 mmHg 93%
    01:00 +5°C° 0.4 mm 1 mps 597 mmHg 93%
    02:00 +5°C° 0.4 mm 1 mps 597 mmHg 93%
    03:00 +5°C° 0.1 mm 1 mps 597 mmHg 94%
    04:00 +5°C° 0.1 mm 1 mps 596 mmHg 94%
    05:00 +5°C° 0.1 mm 1 mps 596 mmHg 94%
    06:00 +5°C° 0.2 mm 1 mps 597 mmHg 93%
    07:00 +5°C° 0.2 mm 1 mps 597 mmHg 93%
    08:00 +5°C° 0.2 mm 1 mps 597 mmHg 92%
    09:00 +5°C° 0.5 mm 1 mps 597 mmHg 93%
    10:00 +5°C° 0.5 mm 1 mps 597 mmHg 94%
    11:00 +5°C° 0.5 mm 1 mps 597 mmHg 95%
    12:00 +5°C° 0.8 mm 1 mps 597 mmHg 96%
    13:00 +5°C° 0.8 mm 1 mps 596 mmHg 96%
    14:00 +5°C° 0.8 mm 1 mps 596 mmHg 96%
    15:00 +5°C° 0.6 mm 1 mps 596 mmHg 96%
    16:00 +5°C° 0.6 mm 1 mps 596 mmHg 96%
    17:00 +5°C° 0.6 mm 1 mps 596 mmHg 97%
    18:00 +5°C° 0.5 mm 1 mps 596 mmHg 96%
    19:00 +5°C° 0.5 mm 1 mps 597 mmHg 96%
    20:00 +5°C° 0.5 mm 1 mps 597 mmHg 95%
    21:00 +5°C° 0.4 mm 1 mps 597 mmHg 95%
    22:00 +5°C° 0.4 mm 1 mps 597 mmHg 95%
    23:00 +5°C° 0.4 mm 1 mps 597 mmHg 94%

    Day after tomorrow, 22 November, Friday

    Time Temperature Precipitation Wind Pressure Humidity
    00:00 +5°C° 0.3 mm 1 mps 597 mmHg 94%
    01:00 +5°C° 0.3 mm 1 mps 597 mmHg 94%
    02:00 +5°C° 0.3 mm 1 mps 597 mmHg 93%
    03:00 +5°C° 0.9 mm 1 mps 596 mmHg 94%
    04:00 +5°C° 0.9 mm 1 mps 596 mmHg 95%
    05:00 +5°C° 0.9 mm 1 mps 596 mmHg 96%
    06:00 +5°C° 1.3 mm 1 mps 596 mmHg 96%
    07:00 +5°C° 1.3 mm 1 mps 596 mmHg 95%
    08:00 +5°C° 1.3 mm 1 mps 596 mmHg 95%
    09:00 +5°C° 0.7 mm 1 mps 596 mmHg 94%
    10:00 +5°C° 0.7 mm 1 mps 597 mmHg 93%
    11:00 +5°C° 0.7 mm 1 mps 597 mmHg 93%
    12:00 +5°C° 0.6 mm 1 mps 596 mmHg 93%
    13:00 +5°C° 0.6 mm 1 mps 596 mmHg 94%
    14:00 +6°C° 0.6 mm 1 mps 596 mmHg 94%
    15:00 +6°C° 0.2 mm 1 mps 596 mmHg 93%
    16:00 +6°C° 0.2 mm 1 mps 596 mmHg 92%
    17:00 +5°C° 0.2 mm 0 mps 596 mmHg 92%
    18:00 +5°C° 0.1 mm 0 mps 596 mmHg 92%
    19:00 +6°C° 0.1 mm 1 mps 597 mmHg 93%
    20:00 +6°C° 0.1 mm 1 mps 597 mmHg 93%
    21:00 +4°C° 0.1 mm 0 mps 597 mmHg 93%
    22:00 +4°C° 0.1 mm 0 mps 597 mmHg 93%
    23:00 +4°C° 0.1 mm 0 mps 597 mmHg 93%

    23 November, Saturday

    Time Temperature Precipitation Wind Pressure Humidity
    00:00 +4°C° 0.1 mm 0 mps 598 mmHg 91%
    01:00 +4°C° 0.1 mm 0 mps 598 mmHg 90%
    02:00 +5°C° 0.1 mm 1 mps 598 mmHg 88%
    03:00 +4°C° 0 mm 1 mps 597 mmHg 86%
    04:00 +4°C° 0 mm 1 mps 597 mmHg 85%
    05:00 +4°C° 0 mm 1 mps 597 mmHg 83%
    06:00 +3°C° 0 mm 1 mps 597 mmHg 80%
    07:00 +3°C° 0 mm 1 mps 597 mmHg 78%
    08:00 +3°C° 0 mm 1 mps 598 mmHg 76%
    09:00 +3°C° 0 mm 1 mps 598 mmHg 73%
    10:00 +4°C° 0 mm 1 mps 598 mmHg 71%
    11:00 +5°C° 0 mm 1 mps 598 mmHg 69%
    12:00 +5°C° 0 mm 1 mps 597 mmHg 68%
    13:00 +6°C° 0 mm 1 mps 597 mmHg 67%
    14:00 +7°C° 0 mm 1 mps 597 mmHg 66%
    15:00 +6°C° 0 mm 1 mps 597 mmHg 65%
    16:00 +6°C° 0 mm 1 mps 596 mmHg 64%
    17:00 +5°C° 0 mm 1 mps 596 mmHg 63%
    18:00 +5°C° 0 mm 1 mps 596 mmHg 64%
    19:00 +4°C° 0 mm 1 mps 597 mmHg 65%
    20:00 +4°C° 0 mm 1 mps 597 mmHg 66%
    21:00 +3°C° 0 mm 1 mps 597 mmHg 66%
    22:00 +3°C° 0 mm 1 mps 597 mmHg 65%
    23:00 +3°C° 0 mm 1 mps 597 mmHg 64%

    24 November, Sunday

    Time Temperature Precipitation Wind Pressure Humidity
    00:00 +3°C° 0 mm 1 mps 597 mmHg 64%
    01:00 +3°C° 0 mm 1 mps 596 mmHg 63%
    02:00 +3°C° 0 mm 1 mps 596 mmHg 63%
    03:00 +2°C° 0 mm 1 mps 596 mmHg 62%
    04:00 +2°C° 0 mm 1 mps 596 mmHg 62%
    05:00 +2°C° 0 mm 1 mps 596 mmHg 61%
    06:00 +2°C° 0 mm 1 mps 596 mmHg 59%
    07:00 +2°C° 0 mm 1 mps 596 mmHg 58%
    08:00 +2°C° 0 mm 1 mps 596 mmHg 56%
    09:00 +3°C° 0 mm 1 mps 596 mmHg 54%
    10:00 +4°C° 0 mm 1 mps 596 mmHg 53%
    11:00 +5°C° 0 mm 1 mps 596 mmHg 51%
    12:00 +6°C° 0 mm 1 mps 596 mmHg 52%
    13:00 +6°C° 0 mm 1 mps 596 mmHg 52%
    14:00 +7°C° 0 mm 1 mps 595 mmHg 53%
    15:00 +6°C° 0 mm 1 mps 595 mmHg 53%
    16:00 +5°C° 0 mm 0 mps 595 mmHg 52%
    17:00 +5°C° 0 mm 0 mps 595 mmHg 52%
    18:00 +4°C° 0 mm 0 mps 595 mmHg 53%
    19:00 +3°C° 0 mm 0 mps 595 mmHg 54%
    20:00 +4°C° 0 mm 1 mps 595 mmHg 55%
    21:00 +3°C° 0 mm 1 mps 595 mmHg 55%
    22:00 +3°C° 0 mm 1 mps 595 mmHg 54%
    23:00 +3°C° 0 mm 1 mps 595 mmHg 53%

    25 November, Monday

    Time Temperature Precipitation Wind Pressure Humidity
    00:00 +3°C° 0 mm 1 mps 595 mmHg 53%
    01:00 +3°C° 0 mm 1 mps 595 mmHg 52%
    02:00 +2°C° 0 mm 1 mps 595 mmHg 52%
    03:00 +2°C° 0 mm 1 mps 595 mmHg 52%
    04:00 +2°C° 0 mm 1 mps 594 mmHg 52%
    05:00 +2°C° 0 mm 1 mps 594 mmHg 52%
    06:00 +2°C° 0 mm 1 mps 595 mmHg 51%
    07:00 +2°C° 0 mm 1 mps 595 mmHg 50%
    08:00 +2°C° 0 mm 1 mps 595 mmHg 49%
    09:00 +3°C° 0 mm 1 mps 596 mmHg 48%
    10:00 +4°C° 0 mm 1 mps 596 mmHg 46%
    11:00 +6°C° 0 mm 1 mps 596 mmHg 45%
    12:00 +6°C° 0 mm 1 mps 596 mmHg 46%
    13:00 +6°C° 0 mm 0 mps 596 mmHg 48%
    14:00 +6°C° 0 mm 0 mps 595 mmHg 50%
    15:00 +6°C° 0 mm 0 mps 596 mmHg 51%
    16:00 +6°C° 0 mm 1 mps 596 mmHg 52%
    17:00 +6°C° 0 mm 1 mps 596 mmHg 53%
    18:00 +5°C° 0 mm 1 mps 596 mmHg 55%
    19:00 +4°C° 0 mm 1 mps 596 mmHg 56%
    20:00 +4°C° 0 mm 1 mps 596 mmHg 58%
    21:00 +4°C° 0 mm 1 mps 597 mmHg 59%
    22:00 +3°C° 0 mm 1 mps 597 mmHg 60%
    23:00 +3°C° 0 mm 1 mps 597 mmHg 61%
    Show more